Time,TemperatureF,DewpointF,PressureIn,WindDirection,WindDirectionDegrees,WindSpeedMPH,WindSpeedGustMPH,Humidity,HourlyPrecipIn,Conditions,Clouds,dailyrainin,SoftwareType,DateUTC
2013-11-03 00:02:00,48.2,27.3,29.93,SSE,151,2.0,8.0,44,0.00,,,0.00,meteohub,2013-11-03 07:02:00,
2013-11-03 00:07:00,48.0,27.7,29.93,South,186,2.0,10.0,45,0.00,,,0.00,meteohub,2013-11-03 07:07:00,
2013-11-03 00:12:00,47.8,27.5,29.93,SSE,159,3.0,10.0,45,0.00,,,0.00,meteohub,2013-11-03 07:12:00,
2013-11-03 00:17:00,47.5,27.7,29.93,ESE,105,3.0,10.0,46,0.00,,,0.00,meteohub,2013-11-03 07:17:00,
2013-11-03 00:22:00,47.7,27.3,29.92,East,79,6.0,10.0,45,0.00,,,0.00,meteohub,2013-11-03 07:22:00,
2013-11-03 00:27:00,48.0,27.7,29.93,SE,136,1.0,10.0,45,0.00,,,0.00,meteohub,2013-11-03 07:27:00,
2013-11-03 00:32:00,47.8,27.5,29.93,South,181,5.0,10.0,45,0.00,,,0.00,meteohub,2013-11-03 07:32:00,
2013-11-03 00:37:00,47.8,27.0,29.92,ESE,106,5.0,8.0,44,0.00,,,0.00,meteohub,2013-11-03 07:37:00,
2013-11-03 00:42:00,47.8,26.4,29.92,SSW,201,6.0,7.0,43,0.00,,,0.00,meteohub,2013-11-03 07:42:00,
2013-11-03 00:47:00,48.4,26.4,29.92,SE,131,2.0,11.0,42,0.00,,,0.00,meteohub,2013-11-03 07:47:00,
2013-11-03 00:52:00,48.4,26.4,29.92,East,88,2.0,13.0,42,0.00,,,0.00,meteohub,2013-11-03 07:52:00,
2013-11-03 00:57:00,47.8,25.9,29.92,SSW,197,1.0,13.0,42,0.00,,,0.00,meteohub,2013-11-03 07:57:00,
2013-11-03 01:02:00,47.8,26.4,29.91,SE,133,3.0,10.0,43,0.00,,,0.00,meteohub,2013-11-03 08:02:00,
2013-11-03 01:07:00,47.8,26.4,29.91,SE,131,2.0,10.0,43,0.00,,,0.00,meteohub,2013-11-03 08:07:00,
2013-11-03 01:12:00,47.5,26.1,29.91,SSE,148,7.0,10.0,43,0.00,,,0.00,meteohub,2013-11-03 08:12:00,
2013-11-03 01:17:00,47.3,25.9,29.91,SE,127,2.0,10.0,43,0.00,,,0.00,meteohub,2013-11-03 08:17:00,
2013-11-03 01:22:00,47.1,25.7,29.91,SW,233,1.0,11.0,43,0.00,,,0.00,meteohub,2013-11-03 08:22:00,
2013-11-03 01:27:00,47.1,25.7,29.91,South,172,1.0,11.0,43,0.00,,,0.00,meteohub,2013-11-03 08:27:00,
2013-11-03 01:32:00,47.1,26.2,29.91,SE,129,3.0,11.0,44,0.00,,,0.00,meteohub,2013-11-03 08:32:00,
2013-11-03 01:37:00,46.9,26.2,29.90,SW,219,1.0,10.0,44,0.00,,,0.00,meteohub,2013-11-03 08:37:00,
2013-11-03 01:42:00,46.9,26.2,29.90,SSE,158,2.0,10.0,44,0.00,,,0.00,meteohub,2013-11-03 08:42:00,
2013-11-03 01:47:00,47.1,25.7,29.90,ESE,117,0.0,9.0,43,0.00,,,0.00,meteohub,2013-11-03 08:47:00,
2013-11-03 01:52:00,47.1,25.2,29.90,SW,231,2.0,8.0,42,0.00,,,0.00,meteohub,2013-11-03 08:52:00,
2013-11-03 01:57:00,47.1,25.7,29.90,WSW,245,1.0,8.0,43,0.00,,,0.00,meteohub,2013-11-03 08:57:00,
2013-11-03 01:02:00,47.1,25.2,29.90,ESE,110,0.0,11.0,42,0.00,,,0.00,meteohub,2013-11-03 09:02:00,
2013-11-03 01:07:00,46.9,25.0,29.90,SW,214,0.0,11.0,42,0.00,,,0.00,meteohub,2013-11-03 09:07:00,
2013-11-03 01:12:00,46.8,25.5,29.90,SE,143,1.0,11.0,43,0.00,,,0.00,meteohub,2013-11-03 09:12:00,
2013-11-03 01:17:00,46.8,26.1,29.90,ESE,115,1.0,11.0,44,0.00,,,0.00,meteohub,2013-11-03 09:17:00,
2013-11-03 01:22:00,46.9,25.5,29.90,SSE,165,1.0,11.0,43,0.00,,,0.00,meteohub,2013-11-03 09:22:00,
2013-11-03 01:27:00,47.1,25.7,29.90,SSE,167,7.0,11.0,43,0.00,,,0.00,meteohub,2013-11-03 09:27:00,
2013-11-03 01:32:00,47.1,25.7,29.90,ESE,110,3.0,11.0,43,0.00,,,0.00,meteohub,2013-11-03 09:32:00,
2013-11-03 01:37:00,47.1,25.2,29.90,ESE,122,2.0,10.0,42,0.00,,,0.00,meteohub,2013-11-03 09:37:00,
2013-11-03 01:42:00,47.1,25.7,29.90,ESE,103,2.0,12.0,43,0.00,,,0.00,meteohub,2013-11-03 09:42:00,
2013-11-03 01:47:00,47.1,25.2,29.90,ENE,75,2.0,12.0,42,0.00,,,0.00,meteohub,2013-11-03 09:47:00,
2013-11-03 01:52:00,47.1,25.2,29.90,SSE,155,4.0,12.0,42,0.00,,,0.00,meteohub,2013-11-03 09:52:00,
2013-11-03 01:57:00,46.9,24.4,29.89,SSE,155,3.0,13.0,41,0.00,,,0.00,meteohub,2013-11-03 09:57:00,
2013-11-03 02:02:00,46.9,24.4,29.90,ESE,114,1.0,13.0,41,0.00,,,0.00,meteohub,2013-11-03 10:02:00,
2013-11-03 02:07:00,46.8,24.3,29.90,ESE,123,5.0,13.0,41,0.00,,,0.00,meteohub,2013-11-03 10:07:00,
2013-11-03 02:12:00,46.8,24.3,29.90,SE,131,3.0,8.0,41,0.00,,,0.00,meteohub,2013-11-03 10:12:00,
2013-11-03 02:17:00,46.6,24.8,29.90,SE,143,7.0,13.0,42,0.00,,,0.00,meteohub,2013-11-03 10:17:00,
2013-11-03 02:22:00,46.6,24.8,29.89,SSE,151,4.0,13.0,42,0.00,,,0.00,meteohub,2013-11-03 10:22:00,
2013-11-03 02:27:00,46.6,24.8,29.89,East,82,4.0,13.0,42,0.00,,,0.00,meteohub,2013-11-03 10:27:00,
2013-11-03 02:32:00,46.6,24.8,29.89,ESE,107,6.0,13.0,42,0.00,,,0.00,meteohub,2013-11-03 10:32:00,
2013-11-03 02:37:00,46.4,25.2,29.89,SSW,194,2.0,13.0,43,0.00,,,0.00,meteohub,2013-11-03 10:37:00,
2013-11-03 02:42:00,46.2,25.5,29.89,South,187,2.0,13.0,44,0.00,,,0.00,meteohub,2013-11-03 10:42:00,
2013-11-03 02:47:00,46.0,24.8,29.89,SE,141,5.0,13.0,43,0.00,,,0.00,meteohub,2013-11-03 10:47:00,
2013-11-03 02:52:00,46.0,24.8,29.89,SE,141,2.0,13.0,43,0.00,,,0.00,meteohub,2013-11-03 10:52:00,
2013-11-03 02:57:00,45.9,25.2,29.89,SSW,201,8.0,13.0,44,0.00,,,0.00,meteohub,2013-11-03 10:57:00,
2013-11-03 03:02:00,45.9,25.2,29.89,SE,132,2.0,13.0,44,0.00,,,0.00,meteohub,2013-11-03 11:02:00,
2013-11-03 03:07:00,45.7,25.5,29.89,WSW,238,4.0,13.0,45,0.00,,,0.00,meteohub,2013-11-03 11:07:00,
2013-11-03 03:12:00,45.5,25.3,29.89,WSW,255,1.0,13.0,45,0.00,,,0.00,meteohub,2013-11-03 11:12:00,
2013-11-03 03:17:00,45.3,25.2,29.88,SSE,148,3.0,13.0,45,0.00,,,0.00,meteohub,2013-11-03 11:17:00,
2013-11-03 03:22:00,45.5,25.3,29.89,SE,127,1.0,13.0,45,0.00,,,0.00,meteohub,2013-11-03 11:22:00,
2013-11-03 03:27:00,45.5,25.3,29.89,SE,132,1.0,13.0,45,0.00,,,0.00,meteohub,2013-11-03 11:27:00,
2013-11-03 03:32:00,45.3,25.2,29.89,SSW,207,2.0,13.0,45,0.00,,,0.00,meteohub,2013-11-03 11:32:00,
2013-11-03 03:37:00,45.7,25.0,29.88,South,187,2.0,13.0,44,0.00,,,0.00,meteohub,2013-11-03 11:37:00,
2013-11-03 03:42:00,45.9,24.6,29.88,SSE,150,8.0,14.0,43,0.00,,,0.00,meteohub,2013-11-03 11:42:00,
2013-11-03 03:47:00,46.0,25.3,29.88,SSW,201,2.0,14.0,44,0.00,,,0.00,meteohub,2013-11-03 11:47:00,
2013-11-03 03:52:00,46.0,24.8,29.88,South,187,5.0,14.0,43,0.00,,,0.00,meteohub,2013-11-03 11:52:00,
2013-11-03 03:57:00,46.0,25.3,29.88,ESE,114,1.0,14.0,44,0.00,,,0.00,meteohub,2013-11-03 11:57:00,
2013-11-03 04:02:00,45.3,26.2,29.88,NW,307,1.0,14.0,47,0.00,,,0.00,meteohub,2013-11-03 12:02:00,
2013-11-03 04:07:00,45.0,25.3,29.88,West,276,1.0,14.0,46,0.00,,,0.00,meteohub,2013-11-03 12:07:00,
2013-11-03 04:12:00,44.8,25.3,29.88,West,281,2.0,14.0,46,0.00,,,0.00,meteohub,2013-11-03 12:12:00,
2013-11-03 04:17:00,44.6,26.1,29.88,West,269,1.0,14.0,48,0.00,,,0.00,meteohub,2013-11-03 12:17:00,
2013-11-03 04:22:00,44.2,26.2,29.88,West,268,1.0,14.0,49,0.00,,,0.00,meteohub,2013-11-03 12:22:00,
2013-11-03 04:27:00,44.2,25.7,29.88,West,277,0.0,14.0,48,0.00,,,0.00,meteohub,2013-11-03 12:27:00,
2013-11-03 04:32:00,44.4,25.5,29.88,SE,136,3.0,14.0,47,0.00,,,0.00,meteohub,2013-11-03 12:32:00,
2013-11-03 04:37:00,45.0,25.9,29.88,WNW,285,0.0,14.0,47,0.00,,,0.00,meteohub,2013-11-03 12:37:00,
2013-11-03 04:42:00,45.1,25.5,29.89,South,173,3.0,14.0,46,0.00,,,0.00,meteohub,2013-11-03 12:42:00,
2013-11-03 04:47:00,45.7,26.1,29.89,East,91,1.0,14.0,46,0.00,,,0.00,meteohub,2013-11-03 12:47:00,
2013-11-03 04:52:00,46.0,25.9,29.89,SE,131,2.0,14.0,45,0.00,,,0.00,meteohub,2013-11-03 12:52:00,
2013-11-03 04:57:00,46.0,25.9,29.88,SE,132,1.0,13.0,45,0.00,,,0.00,meteohub,2013-11-03 12:57:00,
2013-11-03 05:02:00,46.0,26.4,29.89,SW,215,0.0,13.0,46,0.00,,,0.00,meteohub,2013-11-03 13:02:00,
2013-11-03 05:07:00,45.7,26.1,29.88,SE,140,2.0,11.0,46,0.00,,,0.00,meteohub,2013-11-03 13:07:00,
2013-11-03 05:12:00,45.9,26.2,29.89,SSE,160,2.0,9.0,46,0.00,,,0.00,meteohub,2013-11-03 13:12:00,
2013-11-03 05:17:00,46.0,25.9,29.89,SSE,155,2.0,9.0,45,0.00,,,0.00,meteohub,2013-11-03 13:17:00,
2013-11-03 05:22:00,46.2,26.1,29.89,SE,132,4.0,9.0,45,0.00,,,0.00,meteohub,2013-11-03 13:22:00,
2013-11-03 05:27:00,46.2,26.1,29.89,South,174,1.0,9.0,45,0.00,,,0.00,meteohub,2013-11-03 13:27:00,
2013-11-03 05:32:00,46.2,26.1,29.89,WSW,240,1.0,9.0,45,0.00,,,0.00,meteohub,2013-11-03 13:32:00,
2013-11-03 05:37:00,46.0,26.4,29.89,SW,231,1.0,9.0,46,0.00,,,0.00,meteohub,2013-11-03 13:37:00,
2013-11-03 05:42:00,45.9,26.2,29.89,WNW,284,2.0,9.0,46,0.00,,,0.00,meteohub,2013-11-03 13:42:00,
2013-11-03 05:47:00,45.7,25.5,29.89,WNW,288,1.0,9.0,45,0.00,,,0.00,meteohub,2013-11-03 13:47:00,
2013-11-03 05:52:00,45.7,25.0,29.89,SSE,158,0.0,9.0,44,0.00,,,0.00,meteohub,2013-11-03 13:52:00,
2013-11-03 05:57:00,45.5,25.3,29.89,SW,219,0.0,9.0,45,0.00,,,0.00,meteohub,2013-11-03 13:57:00,
2013-11-03 06:02:00,45.5,25.3,29.89,SSE,167,3.0,9.0,45,0.00,,,0.00,meteohub,2013-11-03 14:02:00,
2013-11-03 06:07:00,45.7,25.0,29.89,South,169,2.0,9.0,44,0.00,,,0.00,meteohub,2013-11-03 14:07:00,
2013-11-03 06:12:00,45.9,25.7,29.90,South,174,0.0,9.0,45,0.00,,,0.00,meteohub,2013-11-03 14:12:00,
2013-11-03 06:17:00,45.9,25.2,29.90,SSE,153,0.0,9.0,44,0.00,,,0.00,meteohub,2013-11-03 14:17:00,
2013-11-03 06:22:00,45.7,25.0,29.90,SW,219,0.0,9.0,44,0.00,,,0.00,meteohub,2013-11-03 14:22:00,
2013-11-03 06:27:00,45.9,25.2,29.90,SSW,195,0.0,7.0,44,0.00,,,0.00,meteohub,2013-11-03 14:27:00,
2013-11-03 06:32:00,45.9,25.7,29.90,SW,226,0.0,7.0,45,0.00,,,0.00,meteohub,2013-11-03 14:32:00,
2013-11-03 06:37:00,45.5,24.8,29.91,SSE,162,0.0,7.0,44,0.00,,,0.00,meteohub,2013-11-03 14:37:00,
2013-11-03 06:42:00,45.9,25.7,29.91,South,188,0.0,7.0,45,0.00,,,0.00,meteohub,2013-11-03 14:42:00,
2013-11-03 06:47:00,46.2,26.1,29.90,South,188,0.0,7.0,45,0.00,,,0.00,meteohub,2013-11-03 14:47:00,
2013-11-03 06:52:00,47.1,26.2,29.91,South,190,0.0,6.0,44,0.00,,,0.00,meteohub,2013-11-03 14:52:00,
2013-11-03 06:57:00,47.8,27.0,29.91,SSE,163,0.0,5.0,44,0.00,,,0.00,meteohub,2013-11-03 14:57:00,
2013-11-03 07:02:00,48.7,27.3,29.91,ESE,110,0.0,3.0,43,0.00,,,0.00,meteohub,2013-11-03 15:02:00,
2013-11-03 07:07:00,49.5,26.1,29.91,SSE,158,0.0,3.0,40,0.00,,,0.00,meteohub,2013-11-03 15:07:00,
2013-11-03 07:12:00,50.5,27.1,29.91,SSE,159,0.0,3.0,40,0.00,,,0.00,meteohub,2013-11-03 15:12:00,
2013-11-03 07:17:00,51.8,27.0,29.91,East,87,1.0,3.0,38,0.00,,,0.00,meteohub,2013-11-03 15:17:00,
2013-11-03 07:22:00,52.2,27.9,29.91,ESE,110,2.0,4.0,39,0.00,,,0.00,meteohub,2013-11-03 15:22:00,
2013-11-03 07:27:00,52.0,27.9,29.91,SE,126,1.0,4.0,39,0.00,,,0.00,meteohub,2013-11-03 15:27:00,
2013-11-03 07:32:00,52.2,27.9,29.91,ESE,104,1.0,4.0,39,0.00,,,0.00,meteohub,2013-11-03 15:32:00,
2013-11-03 07:37:00,52.0,27.1,29.91,ESE,105,1.0,4.0,38,0.00,,,0.00,meteohub,2013-11-03 15:37:00,
2013-11-03 07:42:00,52.7,27.9,29.91,South,185,1.0,4.0,38,0.00,,,0.00,meteohub,2013-11-03 15:42:00,
2013-11-03 07:47:00,52.9,27.3,29.91,ESE,102,1.0,4.0,37,0.00,,,0.00,meteohub,2013-11-03 15:47:00,
2013-11-03 07:52:00,52.9,27.3,29.91,SSW,203,3.0,8.0,37,0.00,,,0.00,meteohub,2013-11-03 15:52:00,
2013-11-03 07:57:00,52.9,26.6,29.91,ESE,120,1.0,8.0,36,0.00,,,0.00,meteohub,2013-11-03 15:57:00,
2013-11-03 08:02:00,53.2,27.7,29.91,ESE,113,1.0,8.0,37,0.00,,,0.00,meteohub,2013-11-03 16:02:00,
2013-11-03 08:07:00,53.6,28.0,29.92,ESE,117,4.0,8.0,37,0.00,,,0.00,meteohub,2013-11-03 16:07:00,
2013-11-03 08:12:00,53.2,27.7,29.92,ESE,111,2.0,8.0,37,0.00,,,0.00,meteohub,2013-11-03 16:12:00,
2013-11-03 08:17:00,53.6,28.0,29.92,SE,144,3.0,8.0,37,0.00,,,0.00,meteohub,2013-11-03 16:17:00,
2013-11-03 08:22:00,53.8,27.5,29.92,ESE,121,4.0,8.0,36,0.00,,,0.00,meteohub,2013-11-03 16:22:00,
2013-11-03 08:27:00,53.8,28.0,29.92,SE,124,1.0,8.0,37,0.00,,,0.00,meteohub,2013-11-03 16:27:00,
2013-11-03 08:32:00,54.3,28.6,29.92,East,79,2.0,8.0,37,0.00,,,0.00,meteohub,2013-11-03 16:32:00,
2013-11-03 08:37:00,54.3,27.9,29.92,South,174,4.0,8.0,36,0.00,,,0.00,meteohub,2013-11-03 16:37:00,
2013-11-03 08:42:00,54.3,28.6,29.92,SSW,200,5.0,8.0,37,0.00,,,0.00,meteohub,2013-11-03 16:42:00,
2013-11-03 08:47:00,54.7,28.9,29.92,East,101,2.0,8.0,37,0.00,,,0.00,meteohub,2013-11-03 16:47:00,
2013-11-03 08:52:00,55.4,28.9,29.92,SE,128,2.0,8.0,36,0.00,,,0.00,meteohub,2013-11-03 16:52:00,
2013-11-03 08:57:00,55.8,28.6,29.92,ESE,105,4.0,8.0,35,0.00,,,0.00,meteohub,2013-11-03 16:57:00,
2013-11-03 09:02:00,55.8,27.1,29.92,East,95,5.0,8.0,33,0.00,,,0.00,meteohub,2013-11-03 17:02:00,
2013-11-03 09:07:00,56.1,28.0,29.91,ENE,60,2.0,8.0,34,0.00,,,0.00,meteohub,2013-11-03 17:07:00,
2013-11-03 09:12:00,56.7,27.9,29.91,East,89,1.0,8.0,33,0.00,,,0.00,meteohub,2013-11-03 17:12:00,
2013-11-03 09:17:00,57.6,28.6,29.91,ESE,109,4.0,7.0,33,0.00,,,0.00,meteohub,2013-11-03 17:17:00,
2013-11-03 09:22:00,58.1,27.7,29.91,SE,125,0.0,5.0,31,0.00,,,0.00,meteohub,2013-11-03 17:22:00,
2013-11-03 09:27:00,59.4,27.1,29.91,East,100,0.0,4.0,29,0.00,,,0.00,meteohub,2013-11-03 17:27:00,
2013-11-03 09:32:00,59.5,22.6,29.91,ESE,110,1.0,4.0,24,0.00,,,0.00,meteohub,2013-11-03 17:32:00,
2013-11-03 09:37:00,59.0,22.3,29.91,East,86,0.0,3.0,24,0.00,,,0.00,meteohub,2013-11-03 17:37:00,
2013-11-03 09:42:00,60.3,26.1,29.91,SE,132,0.0,3.0,27,0.00,,,0.00,meteohub,2013-11-03 17:42:00,
2013-11-03 09:47:00,61.0,25.0,29.91,ENE,73,0.0,3.0,25,0.00,,,0.00,meteohub,2013-11-03 17:47:00,
2013-11-03 09:52:00,61.3,25.2,29.91,East,98,0.0,2.0,25,0.00,,,0.00,meteohub,2013-11-03 17:52:00,
2013-11-03 09:57:00,61.9,25.7,29.91,ESE,117,2.0,2.0,25,0.00,,,0.00,meteohub,2013-11-03 17:57:00,
2013-11-03 10:02:00,61.3,30.4,29.91,NW,325,1.0,4.0,31,0.00,,,0.00,meteohub,2013-11-03 18:02:00,
2013-11-03 10:07:00,60.6,32.2,29.91,SE,127,1.0,5.0,34,0.00,,,0.00,meteohub,2013-11-03 18:07:00,
2013-11-03 10:12:00,60.4,31.3,29.91,ESE,114,1.0,5.0,33,0.00,,,0.00,meteohub,2013-11-03 18:12:00,
2013-11-03 10:17:00,59.7,30.6,29.91,South,169,3.0,6.0,33,0.00,,,0.00,meteohub,2013-11-03 18:17:00,
2013-11-03 10:22:00,60.1,27.7,29.91,ESE,120,1.0,6.0,29,0.00,,,0.00,meteohub,2013-11-03 18:22:00,
2013-11-03 10:27:00,60.3,32.5,29.91,East,81,2.0,6.0,35,0.00,,,0.00,meteohub,2013-11-03 18:27:00,
2013-11-03 10:32:00,60.3,32.5,29.91,South,170,3.0,5.0,35,0.00,,,0.00,meteohub,2013-11-03 18:32:00,
2013-11-03 10:37:00,60.1,34.3,29.91,SE,139,1.0,5.0,38,0.00,,,0.00,meteohub,2013-11-03 18:37:00,
2013-11-03 10:42:00,60.1,34.3,29.91,East,86,2.0,5.0,38,0.00,,,0.00,meteohub,2013-11-03 18:42:00,
2013-11-03 10:47:00,59.7,34.7,29.91,ENE,77,3.0,6.0,39,0.00,,,0.00,meteohub,2013-11-03 18:47:00,
2013-11-03 10:52:00,59.2,36.7,29.91,West,259,0.0,7.0,43,0.00,,,0.00,meteohub,2013-11-03 18:52:00,
2013-11-03 10:57:00,59.2,34.2,29.91,ESE,107,4.0,7.0,39,0.00,,,0.00,meteohub,2013-11-03 18:57:00,
2013-11-03 11:02:00,59.5,34.0,29.90,East,93,2.0,8.0,38,0.00,,,0.00,meteohub,2013-11-03 19:02:00,
2013-11-03 11:07:00,59.7,36.5,29.90,ESE,105,6.0,8.0,42,0.00,,,0.00,meteohub,2013-11-03 19:07:00,
2013-11-03 11:17:00,58.3,37.6,29.90,East,92,8.0,9.0,46,0.00,,,0.00,meteohub,2013-11-03 19:17:00,
2013-11-03 11:22:00,58.3,37.0,29.90,ESE,120,5.0,9.0,45,0.00,,,0.00,meteohub,2013-11-03 19:22:00,
2013-11-03 11:27:00,57.6,37.4,29.90,SE,127,3.0,9.0,47,0.00,,,0.00,meteohub,2013-11-03 19:27:00,
2013-11-03 11:32:00,57.6,37.4,29.89,WSW,255,2.0,9.0,47,0.00,,,0.00,meteohub,2013-11-03 19:32:00,
2013-11-03 11:37:00,57.4,37.9,29.89,SW,222,2.0,9.0,48,0.00,,,0.00,meteohub,2013-11-03 19:37:00,
2013-11-03 11:42:00,57.4,37.9,29.89,East,99,4.0,10.0,48,0.00,,,0.00,meteohub,2013-11-03 19:42:00,
2013-11-03 11:47:00,57.0,38.1,29.89,SE,139,2.0,10.0,49,0.00,,,0.00,meteohub,2013-11-03 19:47:00,
2013-11-03 11:52:00,57.0,38.1,29.89,SE,124,1.0,10.0,49,0.00,,,0.00,meteohub,2013-11-03 19:52:00,
2013-11-03 11:57:00,56.7,38.3,29.88,SE,132,4.0,9.0,50,0.00,,,0.00,meteohub,2013-11-03 19:57:00,
2013-11-03 12:02:00,56.8,37.9,29.88,SE,146,5.0,10.0,49,0.00,,,0.00,meteohub,2013-11-03 20:02:00,
2013-11-03 12:07:00,56.7,38.3,29.88,ESE,111,5.0,10.0,50,0.00,,,0.00,meteohub,2013-11-03 20:07:00,
2013-11-03 12:12:00,56.5,38.1,29.88,East,101,3.0,9.0,50,0.00,,,0.00,meteohub,2013-11-03 20:12:00,
2013-11-03 12:17:00,56.3,38.8,29.88,SSE,150,2.0,10.0,52,0.00,,,0.00,meteohub,2013-11-03 20:17:00,
2013-11-03 12:22:00,56.3,39.4,29.88,SSE,148,6.0,10.0,53,0.00,,,0.00,meteohub,2013-11-03 20:22:00,
2013-11-03 12:27:00,56.1,39.7,29.88,SSE,148,3.0,10.0,54,0.00,,,0.00,meteohub,2013-11-03 20:27:00,
2013-11-03 12:32:00,55.9,39.9,29.87,SE,142,3.0,10.0,55,0.00,,,0.00,meteohub,2013-11-03 20:32:00,
2013-11-03 12:37:00,55.8,39.4,29.87,ESE,105,3.0,10.0,54,0.00,,,0.00,meteohub,2013-11-03 20:37:00,
2013-11-03 12:42:00,55.8,39.9,29.87,SSE,167,2.0,10.0,55,0.00,,,0.00,meteohub,2013-11-03 20:42:00,
2013-11-03 12:47:00,56.1,39.2,29.87,SSW,203,0.0,9.0,53,0.00,,,0.00,meteohub,2013-11-03 20:47:00,
2013-11-03 12:52:00,56.1,39.2,29.87,SE,125,1.0,8.0,53,0.00,,,0.00,meteohub,2013-11-03 20:52:00,
2013-11-03 12:57:00,56.5,39.6,29.87,SE,143,4.0,6.0,53,0.00,,,0.00,meteohub,2013-11-03 20:57:00,
2013-11-03 13:02:00,56.1,39.2,29.87,South,179,4.0,6.0,53,0.00,,,0.00,meteohub,2013-11-03 21:02:00,
2013-11-03 13:07:00,55.9,39.0,29.86,East,94,5.0,6.0,53,0.00,,,0.00,meteohub,2013-11-03 21:07:00,
2013-11-03 13:12:00,55.6,38.7,29.86,SSE,150,1.0,6.0,53,0.00,,,0.00,meteohub,2013-11-03 21:12:00,
2013-11-03 13:17:00,55.6,39.2,29.86,ESE,117,1.0,6.0,54,0.00,,,0.00,meteohub,2013-11-03 21:17:00,
2013-11-03 13:22:00,55.6,39.2,29.86,SSE,155,1.0,6.0,54,0.00,,,0.00,meteohub,2013-11-03 21:22:00,
2013-11-03 13:27:00,55.6,39.2,29.86,SE,131,1.0,6.0,54,0.00,,,0.00,meteohub,2013-11-03 21:27:00,
2013-11-03 13:32:00,55.0,39.2,29.86,SE,141,7.0,7.0,55,0.00,,,0.00,meteohub,2013-11-03 21:32:00,
2013-11-03 13:37:00,54.9,39.0,29.86,West,260,2.0,9.0,55,0.00,,,0.00,meteohub,2013-11-03 21:37:00,
2013-11-03 13:42:00,54.5,38.7,29.86,SSE,158,2.0,9.0,55,0.00,,,0.00,meteohub,2013-11-03 21:42:00,
2013-11-03 13:47:00,54.3,38.5,29.86,ESE,110,3.0,9.0,55,0.00,,,0.00,meteohub,2013-11-03 21:47:00,
2013-11-03 13:52:00,54.0,38.1,29.86,East,90,2.0,9.0,55,0.00,,,0.00,meteohub,2013-11-03 21:52:00,
2013-11-03 13:57:00,53.8,38.5,29.86,WSW,243,4.0,9.0,56,0.00,,,0.00,meteohub,2013-11-03 21:57:00,
2013-11-03 14:02:00,53.8,38.5,29.86,SSE,160,4.0,9.0,56,0.00,,,0.00,meteohub,2013-11-03 22:02:00,
2013-11-03 14:07:00,53.8,38.8,29.86,ESE,109,3.0,9.0,57,0.00,,,0.00,meteohub,2013-11-03 22:07:00,
2013-11-03 14:12:00,53.8,38.8,29.86,SW,236,0.0,9.0,57,0.00,,,0.00,meteohub,2013-11-03 22:12:00,
2013-11-03 14:17:00,54.0,39.0,29.85,ESE,120,3.0,8.0,57,0.00,,,0.00,meteohub,2013-11-03 22:17:00,
2013-11-03 14:22:00,53.6,38.7,29.86,SSW,212,8.0,8.0,57,0.00,,,0.00,meteohub,2013-11-03 22:22:00,
2013-11-03 14:27:00,53.2,38.8,29.86,SSE,149,4.0,8.0,58,0.00,,,0.00,meteohub,2013-11-03 22:27:00,
2013-11-03 14:32:00,52.9,38.5,29.86,ESE,110,0.0,8.0,58,0.00,,,0.00,meteohub,2013-11-03 22:32:00,
2013-11-03 14:37:00,52.7,38.3,29.86,NNE,30,5.0,8.0,58,0.00,,,0.00,meteohub,2013-11-03 22:37:00,
2013-11-03 14:42:00,52.5,38.7,29.86,East,80,1.0,8.0,59,0.00,,,0.00,meteohub,2013-11-03 22:42:00,
2013-11-03 14:47:00,52.2,37.8,29.85,SSE,150,1.0,7.0,58,0.00,,,0.00,meteohub,2013-11-03 22:47:00,
2013-11-03 14:52:00,52.0,38.1,29.85,WSW,238,0.0,9.0,59,0.00,,,0.00,meteohub,2013-11-03 22:52:00,
2013-11-03 14:57:00,51.6,37.8,29.85,East,98,2.0,9.0,59,0.00,,,0.00,meteohub,2013-11-03 22:57:00,
2013-11-03 15:02:00,51.4,37.9,29.85,SW,231,3.0,9.0,60,0.00,,,0.00,meteohub,2013-11-03 23:02:00,
2013-11-03 15:07:00,51.1,37.2,29.85,East,94,2.0,8.0,59,0.00,,,0.00,meteohub,2013-11-03 23:07:00,
2013-11-03 15:12:00,50.5,36.7,29.85,East,90,4.0,13.0,59,0.00,,,0.00,meteohub,2013-11-03 23:12:00,
2013-11-03 15:17:00,50.2,36.3,29.84,WSW,248,2.0,13.0,59,0.00,,,0.00,meteohub,2013-11-03 23:17:00,
2013-11-03 15:22:00,49.8,36.1,29.84,West,278,1.0,14.0,59,0.00,,,0.00,meteohub,2013-11-03 23:22:00,
2013-11-03 15:27:00,49.6,36.0,29.85,SSE,151,4.0,14.0,59,0.00,,,0.00,meteohub,2013-11-03 23:27:00,
2013-11-03 15:32:00,49.3,35.6,29.85,SSE,162,3.0,11.0,59,0.00,,,0.00,meteohub,2013-11-03 23:32:00,
2013-11-03 15:37:00,49.1,35.4,29.85,SSW,198,3.0,11.0,59,0.00,,,0.00,meteohub,2013-11-03 23:37:00,
2013-11-03 15:42:00,48.9,35.6,29.85,SW,228,3.0,10.0,60,0.00,,,0.00,meteohub,2013-11-03 23:42:00,
2013-11-03 15:47:00,48.7,36.0,29.85,SE,143,3.0,9.0,61,0.00,,,0.00,meteohub,2013-11-03 23:47:00,
2013-11-03 15:52:00,48.6,36.1,29.85,SE,134,1.0,9.0,62,0.00,,,0.00,meteohub,2013-11-03 23:52:00,
2013-11-03 15:57:00,48.4,36.0,29.85,SSE,152,3.0,9.0,62,0.00,,,0.00,meteohub,2013-11-03 23:57:00,
2013-11-03 16:02:00,48.2,35.8,29.85,ESE,120,2.0,8.0,62,0.00,,,0.00,meteohub,2013-11-04 00:02:00,
2013-11-03 16:07:00,48.0,35.6,29.85,SW,221,1.0,6.0,62,0.00,,,0.00,meteohub,2013-11-04 00:07:00,
2013-11-03 16:12:00,48.0,36.0,29.85,SSW,211,1.0,5.0,63,0.00,,,0.00,meteohub,2013-11-04 00:12:00,
2013-11-03 16:17:00,47.8,35.8,29.85,South,187,2.0,5.0,63,0.00,,,0.00,meteohub,2013-11-04 00:17:00,
2013-11-03 16:22:00,47.8,36.3,29.85,ESE,122,1.0,4.0,64,0.00,,,0.00,meteohub,2013-11-04 00:22:00,
2013-11-03 16:27:00,47.7,36.5,29.85,SE,134,2.0,3.0,65,0.00,,,0.00,meteohub,2013-11-04 00:27:00,
2013-11-03 16:32:00,47.5,36.7,29.85,SSE,162,2.0,3.0,66,0.00,,,0.00,meteohub,2013-11-04 00:32:00,
2013-11-03 16:37:00,47.3,36.5,29.85,SSW,194,0.0,6.0,66,0.00,,,0.00,meteohub,2013-11-04 00:37:00,
2013-11-03 16:42:00,47.1,37.0,29.84,SSW,194,2.0,6.0,68,0.00,,,0.00,meteohub,2013-11-04 00:42:00,
2013-11-03 16:47:00,46.9,36.9,29.85,South,186,2.0,6.0,68,0.00,,,0.00,meteohub,2013-11-04 00:47:00,
2013-11-03 16:52:00,46.8,37.2,29.85,SSW,196,2.0,5.0,69,0.00,,,0.00,meteohub,2013-11-04 00:52:00,
2013-11-03 16:57:00,46.6,37.0,29.85,SE,131,1.0,5.0,69,0.00,,,0.00,meteohub,2013-11-04 00:57:00,
2013-11-03 17:02:00,46.2,37.0,29.85,SSW,200,1.0,5.0,70,0.00,,,0.00,meteohub,2013-11-04 01:02:00,
2013-11-03 17:07:00,46.0,37.2,29.84,SSW,210,2.0,4.0,71,0.00,,,0.00,meteohub,2013-11-04 01:07:00,
2013-11-03 17:12:00,45.9,37.0,29.85,SSW,202,1.0,4.0,71,0.00,,,0.00,meteohub,2013-11-04 01:12:00,
2013-11-03 17:22:00,45.7,37.6,29.85,SE,136,2.0,4.0,73,0.00,,,0.00,meteohub,2013-11-04 01:22:00,
2013-11-03 17:27:00,45.3,37.2,29.85,SSW,210,2.0,6.0,73,0.00,,,0.00,meteohub,2013-11-04 01:27:00,
2013-11-03 17:32:00,45.3,37.6,29.85,SSE,160,6.0,7.0,74,0.00,,,0.00,meteohub,2013-11-04 01:32:00,
2013-11-03 17:37:00,45.1,37.0,29.85,SSE,165,1.0,7.0,73,0.00,,,0.00,meteohub,2013-11-04 01:37:00,
2013-11-03 17:42:00,45.1,36.7,29.85,SSW,207,2.0,7.0,72,0.00,,,0.00,meteohub,2013-11-04 01:42:00,
2013-11-03 17:47:00,45.3,36.1,29.85,South,184,2.0,7.0,70,0.00,,,0.00,meteohub,2013-11-04 01:47:00,
2013-11-03 17:52:00,45.7,36.5,29.85,South,174,1.0,8.0,70,0.00,,,0.00,meteohub,2013-11-04 01:52:00,
2013-11-03 17:57:00,45.7,37.2,29.86,WSW,255,3.0,8.0,72,0.00,,,0.00,meteohub,2013-11-04 01:57:00,
2013-11-03 18:02:00,45.5,37.4,29.86,SSE,148,2.0,8.0,73,0.00,,,0.00,meteohub,2013-11-04 02:02:00,
2013-11-03 18:07:00,45.3,37.2,29.86,ESE,122,3.0,7.0,73,0.00,,,0.00,meteohub,2013-11-04 02:07:00,
2013-11-03 18:12:00,45.3,36.5,29.86,SSW,200,1.0,7.0,71,0.00,,,0.00,meteohub,2013-11-04 02:12:00,
2013-11-03 18:17:00,45.3,36.1,29.86,SW,217,1.0,7.0,70,0.00,,,0.00,meteohub,2013-11-04 02:17:00,
2013-11-03 18:22:00,45.5,36.0,29.86,South,191,1.0,7.0,69,0.00,,,0.00,meteohub,2013-11-04 02:22:00,
2013-11-03 18:27:00,45.7,35.4,29.86,SSW,205,1.0,7.0,67,0.00,,,0.00,meteohub,2013-11-04 02:27:00,
2013-11-03 18:32:00,45.7,35.4,29.86,SW,227,1.0,4.0,67,0.00,,,0.00,meteohub,2013-11-04 02:32:00,
2013-11-03 18:37:00,45.7,35.4,29.86,SW,226,1.0,4.0,67,0.00,,,0.00,meteohub,2013-11-04 02:37:00,
2013-11-03 18:42:00,45.3,34.7,29.86,WSW,250,1.0,4.0,66,0.00,,,0.00,meteohub,2013-11-04 02:42:00,
2013-11-03 18:47:00,45.3,33.8,29.86,WSW,246,1.0,3.0,64,0.00,,,0.00,meteohub,2013-11-04 02:47:00,
2013-11-03 18:52:00,45.1,32.9,29.86,WSW,243,1.0,2.0,62,0.00,,,0.00,meteohub,2013-11-04 02:52:00,
2013-11-03 18:57:00,45.0,32.4,29.87,SW,233,2.0,2.0,61,0.00,,,0.00,meteohub,2013-11-04 02:57:00,
2013-11-03 19:02:00,45.1,33.3,29.86,SE,129,2.0,2.0,63,0.00,,,0.00,meteohub,2013-11-04 03:02:00,
2013-11-03 19:07:00,45.5,34.9,29.86,SSW,198,1.0,5.0,66,0.00,,,0.00,meteohub,2013-11-04 03:07:00,
2013-11-03 19:12:00,45.7,35.4,29.86,SSE,148,1.0,5.0,67,0.00,,,0.00,meteohub,2013-11-04 03:12:00,
2013-11-03 19:17:00,45.3,35.1,29.86,SSW,204,1.0,5.0,67,0.00,,,0.00,meteohub,2013-11-04 03:17:00,
2013-11-03 19:27:00,45.1,35.2,29.87,SSW,207,1.0,5.0,68,0.00,,,0.00,meteohub,2013-11-04 03:27:00,
2013-11-03 19:37:00,45.3,35.4,29.86,NE,51,4.0,4.0,68,0.00,,,0.00,meteohub,2013-11-04 03:37:00,
2013-11-03 19:42:00,45.5,35.2,29.86,SE,132,1.0,9.0,67,0.00,,,0.00,meteohub,2013-11-04 03:42:00,
2013-11-03 19:47:00,45.3,35.1,29.86,ESE,105,3.0,9.0,67,0.00,,,0.00,meteohub,2013-11-04 03:47:00,
2013-11-03 19:52:00,45.5,35.2,29.86,SE,129,2.0,9.0,67,0.00,,,0.00,meteohub,2013-11-04 03:52:00,
2013-11-03 19:57:00,45.7,35.1,29.85,ENE,73,2.0,8.0,66,0.00,,,0.00,meteohub,2013-11-04 03:57:00,
2013-11-03 20:02:00,45.7,34.5,29.86,West,277,1.0,8.0,65,0.00,,,0.00,meteohub,2013-11-04 04:02:00,
2013-11-03 20:07:00,45.7,34.2,29.87,WNW,295,1.0,7.0,64,0.00,,,0.00,meteohub,2013-11-04 04:07:00,
2013-11-03 20:12:00,45.5,34.3,29.87,SW,224,0.0,6.0,65,0.00,,,0.00,meteohub,2013-11-04 04:12:00,
2013-11-03 20:17:00,44.8,34.5,29.88,NW,322,0.0,4.0,67,0.00,,,0.00,meteohub,2013-11-04 04:17:00,
2013-11-03 20:22:00,44.1,34.2,29.87,SW,219,0.0,3.0,68,0.00,,,0.00,meteohub,2013-11-04 04:22:00,
2013-11-03 20:27:00,43.9,34.0,29.87,NNW,329,0.0,2.0,68,0.00,,,0.00,meteohub,2013-11-04 04:27:00,
2013-11-03 20:37:00,44.4,33.8,29.87,East,100,0.0,3.0,66,0.00,,,0.00,meteohub,2013-11-04 04:37:00,
2013-11-03 20:42:00,44.4,33.4,29.86,East,101,0.0,3.0,65,0.00,,,0.00,meteohub,2013-11-04 04:42:00,
2013-11-03 20:47:00,44.4,33.1,29.86,WSW,240,1.0,3.0,64,0.00,,,0.00,meteohub,2013-11-04 04:47:00,
2013-11-03 20:52:00,44.4,33.1,29.86,WSW,241,0.0,2.0,64,0.00,,,0.00,meteohub,2013-11-04 04:52:00,
2013-11-03 20:57:00,44.4,33.1,29.86,SW,232,0.0,2.0,64,0.00,,,0.00,meteohub,2013-11-04 04:57:00,
2013-11-03 21:02:00,43.9,33.3,29.86,WSW,246,0.0,2.0,66,0.00,,,0.00,meteohub,2013-11-04 05:02:00,
2013-11-03 21:07:00,43.5,33.6,29.86,SW,228,0.0,2.0,68,0.00,,,0.00,meteohub,2013-11-04 05:07:00,
2013-11-03 21:12:00,43.3,33.4,29.86,South,191,0.0,2.0,68,0.00,,,0.00,meteohub,2013-11-04 05:12:00,
2013-11-03 21:17:00,43.5,33.3,29.86,SSE,148,1.0,2.0,67,0.00,,,0.00,meteohub,2013-11-04 05:17:00,
2013-11-03 21:22:00,43.7,33.8,29.86,SSW,208,2.0,2.0,68,0.00,,,0.00,meteohub,2013-11-04 05:22:00,
2013-11-03 21:27:00,43.9,35.1,29.86,South,169,2.0,3.0,71,0.00,,,0.00,meteohub,2013-11-04 05:27:00,
2013-11-03 21:32:00,44.2,34.7,29.86,NW,323,1.0,4.0,69,0.00,,,0.00,meteohub,2013-11-04 05:32:00,
2013-11-03 21:37:00,44.2,34.3,29.86,NW,316,0.0,4.0,68,0.00,,,0.00,meteohub,2013-11-04 05:37:00,
2013-11-03 21:42:00,43.9,34.3,29.86,NW,316,0.0,4.0,69,0.00,,,0.00,meteohub,2013-11-04 05:42:00,
2013-11-03 21:47:00,43.3,33.4,29.85,NW,316,0.0,2.0,68,0.00,,,0.00,meteohub,2013-11-04 05:47:00,
2013-11-03 21:52:00,43.5,33.6,29.85,SSE,162,1.0,2.0,68,0.00,,,0.00,meteohub,2013-11-04 05:52:00,
2013-11-03 21:57:00,43.3,33.4,29.85,WSW,248,1.0,3.0,68,0.00,,,0.00,meteohub,2013-11-04 05:57:00,
2013-11-03 22:02:00,43.5,34.0,29.84,SSE,165,1.0,6.0,69,0.00,,,0.00,meteohub,2013-11-04 06:02:00,
2013-11-03 22:07:00,44.1,33.8,29.84,South,179,4.0,6.0,67,0.00,,,0.00,meteohub,2013-11-04 06:07:00,
2013-11-03 22:12:00,44.6,33.3,29.84,SSE,158,1.0,6.0,64,0.00,,,0.00,meteohub,2013-11-04 06:12:00,
2013-11-03 22:17:00,45.0,33.1,29.83,ESE,110,4.0,11.0,63,0.00,,,0.00,meteohub,2013-11-04 06:17:00,
2013-11-03 22:22:00,45.3,33.1,29.83,SE,129,4.0,11.0,62,0.00,,,0.00,meteohub,2013-11-04 06:22:00,
2013-11-03 22:27:00,45.9,32.7,29.83,ESE,116,4.0,11.0,60,0.00,,,0.00,meteohub,2013-11-04 06:27:00,
2013-11-03 22:32:00,46.2,32.2,29.83,SSE,150,6.0,15.0,58,0.00,,,0.00,meteohub,2013-11-04 06:32:00,
2013-11-03 22:37:00,46.2,32.7,29.83,SSE,148,4.0,15.0,59,0.00,,,0.00,meteohub,2013-11-04 06:37:00,
2013-11-03 22:42:00,46.2,33.1,29.83,SSE,151,6.0,11.0,60,0.00,,,0.00,meteohub,2013-11-04 06:42:00,
2013-11-03 22:47:00,46.0,32.5,29.83,South,169,4.0,13.0,59,0.00,,,0.00,meteohub,2013-11-04 06:47:00,
2013-11-03 22:52:00,46.0,32.5,29.82,East,101,4.0,13.0,59,0.00,,,0.00,meteohub,2013-11-04 06:52:00,
2013-11-03 22:57:00,46.0,31.6,29.83,SSW,195,4.0,13.0,57,0.00,,,0.00,meteohub,2013-11-04 06:57:00,
2013-11-03 23:02:00,46.2,30.6,29.83,ESE,104,9.0,13.0,54,0.00,,,0.00,meteohub,2013-11-04 07:02:00,
2013-11-03 23:07:00,46.0,32.5,29.83,SE,129,5.0,13.0,59,0.00,,,0.00,meteohub,2013-11-04 07:07:00,
2013-11-03 23:12:00,45.9,34.7,29.83,ESE,103,8.0,11.0,65,0.00,,,0.00,meteohub,2013-11-04 07:12:00,
2013-11-03 23:17:00,45.3,36.5,29.83,East,91,5.0,13.0,71,0.00,,,0.00,meteohub,2013-11-04 07:17:00,
2013-11-03 23:22:00,45.1,37.4,29.83,East,82,6.0,13.0,74,0.00,,,0.00,meteohub,2013-11-04 07:22:00,
2013-11-03 23:27:00,44.8,37.0,29.83,SSE,155,10.0,13.0,74,0.00,,,0.00,meteohub,2013-11-04 07:27:00,
2013-11-03 23:32:00,44.8,37.0,29.83,SSE,148,5.0,14.0,74,0.00,,,0.00,meteohub,2013-11-04 07:32:00,
2013-11-03 23:37:00,44.8,35.6,29.83,East,91,4.0,14.0,70,0.00,,,0.00,meteohub,2013-11-04 07:37:00,
2013-11-03 23:42:00,45.0,35.1,29.83,ESE,108,3.0,14.0,68,0.00,,,0.00,meteohub,2013-11-04 07:42:00,
2013-11-03 23:47:00,45.0,34.7,29.83,ESE,117,7.0,13.0,67,0.00,,,0.00,meteohub,2013-11-04 07:47:00,
2013-11-03 23:52:00,44.8,34.9,29.83,ESE,107,5.0,13.0,68,0.00,,,0.00,meteohub,2013-11-04 07:52:00,
2013-11-03 23:57:00,44.6,35.4,29.82,WSW,243,2.0,9.0,70,0.00,,,0.00,meteohub,2013-11-04 07:57:00,